Dauntless Aviation
Airports Europe United Kingdom
EGLC
LCY

London City

London, UNITED KINGDOM

Airport Info
Suggest Updated Information for this Airport

Location

Latitude / Longitude: 51°30'18"N / 0°3'12"E
  51°30.3'N / 0°3.21'E
  51.5050 / 0.0535

Nearby radio navigation aids

LCY CITY NDB on field.

Runway Information

Runway 10 /28

Dimensions: 4948 x 98 ft.
Surface: ASP
 
Runway 10
Runway 28
Latitude: 51.505528 51.504922
Longitude: 0.045753 0.064953
Elevation: 16 ft. 16 ft.
Runway true heading: 91.1 271.1
 

Instrument Procedures

  Control Zone and Control Area Chart
  Aircraft Parking/Docking Chart
  Aerodrome Chart

STARs (Standard Terminal Arrivals)

  STAR via SPEAR (Northwest)
  STAR via ALKIN (South)
  STAR via SPEAR (East)
  STAR via SPEAR (West)
  STAR via SPEAR (Alternate Holding at LOGAN and ALKIN)

IAPs (Instrument Approach Procedures)

  LOC/DME/NDB (L) Rwy 27 (Aircraft CAT A/B/C)
  Visual Approach Profile Rwy 27
  ILS (5.5°GP) /DME/NDB (L) Rwy 27 (Aircraft CAT A/B/C)
  Visual Approach Profile Rwy 09
  LOC/DME/NDB (L) Rwy 09
  ATC Surveillance Minimum Altitude Chart
  ILS (5.5°GP) /DME/NDB (L) Rwy 09 (Aircraft CAT A/B/C)

Departure Procedures

  SID DOVER/LYDD
  SID CLACTON
  SID SOUTHAMPTON
  SID BROOKMANS PARK/COMPTON
Satellite photo at:
Airport distance calculator
From:
Weather Reports

METAR

EGLC

EGLC 041520Z 18007KT 080V260 CAVOK 18/04 Q1025
EGKB
11.4nm S
EGKB 041520Z 18009KT 140V210 CAVOK 15/03 Q1025
EGWU
17.8nm W
EGWU 041450Z 22010KT CAVOK 17/02 Q1025 NOSIG
EGLL
18.9nm SW
EGLL 041520Z AUTO 19008G18KT 150V260 9999 NCD 17/03 Q1025 NOSIG
EGSS
23.5nm N
EGSS 041520Z AUTO 17009KT 140V210 9999 NCD 17/05 Q1025
EGKK
23.8nm S
EGKK 041520Z 17007KT 130V220 CAVOK 16/02 Q1025

TAF

EGLC
TAF EGLC 041400Z 0415/0421 19010KT CAVOK
EGKB
11.4nm S
TAF EGKB 041400Z 0415/0420 19010KT CAVOK BECMG 0418/0420 13005KT
EGWU
17.8nm W
TAF EGWU 041317Z 0415/0509 20010KT CAVOK
EGLL
18.9nm SW
TAF EGLL 041053Z 0412/0518 18010KT 9999 FEW042 BECMG 0503/0506 12005KT
EGSS
23.5nm N
TAF EGSS 041057Z 0412/0518 19012KT CAVOK BECMG 0421/0424 13002KT BECMG 0510/0513 13012KT
EGKK
23.8nm S
TAF EGKK 041057Z 0412/0518 19010KT 9999 FEW045 BECMG 0420/0423 13005KT PROB30 0502/0507 6000
Safelog

 

Dauntless Aviation

© 2007-2016 Dauntless Aviation, all rights reserved
Information provided via PilotNav comes from a variety of official and unofficial data sources. As errors are possible, do not use PilotNav for primary flight planning purposes. Verify any information that you receive via PilotNav with current and canonical charts and other official documents. The material in this database is subject to database copyrights held by Dauntless Aviation and may not be copied without the express permission of Dauntless Aviation - licenses for use of part of all of this data are available for purchase; enquire via the Dauntless Aviation helpdesk. A number of mechanisms and markers exist in the database to protect against and identify infringement / copyright. Automated queries against this website are stictly prohibited, and all activity is logged and analyzed.